{"data":{"norad_id":53742,"intl_designator":"2022-107AU","name":"STARLINK-4637","alt_names":[],"object_type":"PAYLOAD","status":"ACTIVE","operator":null,"country":"US","launch_date":"2022-09-05","launch_site_code":"AFETR","launch_vehicle":null,"mission":null,"orbit_class":"UNKNOWN","rcs_meters":null,"size_class":null,"mass_kg":null,"dimensions":null,"purposes":["comms"],"wikipedia_slug":null,"has_3d_model":false,"image_url":null,"decayed_at":null,"tle_current":{"epoch":"2026-09-20T21:37:54.072192Z","epoch_age_seconds":49674,"freshness":"FRESH","line1":"1 53742U 22107AU  26263.90132028  .00001842  00000+0  65662-4 0  9990","line2":"2 53742  53.1626  91.6899 0001111  93.2307 266.8823 15.34391810224284","mean_motion":15.3439181,"eccentricity":0.0001111,"inclination_deg":53.1626,"raan_deg":91.6899,"arg_perigee_deg":93.2307,"mean_anomaly_deg":266.8823,"bstar":6.5662e-5,"rev_number":22428,"period_min":93.84825900498,"perigee_km":461.9675626662,"apogee_km":463.48760277648,"semimajor_km":6840.8645827213,"source":"CELESTRAK","updated_at":"2026-09-21T09:00:32.989522Z"}}}